Airfield :
LOGIN :

Register | Disclaimer

   EN    FR    IT 

 










Legend :    VFR   Marginal VFR   IFR   Intensive IFR   Very Intensive IFR
Visi :
Ceiling :
>= 8 km
>= 3000ft
5 to 8 km
1000 to 3000 ft
1500m to 5 km
500 to 1000 ft
800 to 1500m
200 to 500 ft
< 800m
< 200 ft
Symbols :   Thunderstorms  Fog  Heavy snow  Heavy precipitations  Wind > 20 kt
SIGMETs :     Misc.  Thunderstorms  Icing  Turbulence  Mountain Waves  Volcanic Ashes







- Airport Elevation : 141 ft
- IATA code : TGD


LYPG - Podgorica - Montenegro

CURRENT METAR :
  • 152030Z VRB02KT CAVOK 26/19 Q1011 NOSIG

EXPIRED METARs :
  • 152000Z 02005KT CAVOK 28/19 Q1011 NOSIG
  • 151930Z 35003KT CAVOK 28/19 Q1010 NOSIG
  • 151900Z 02003KT CAVOK 29/19 Q1010 NOSIG
  • 151830Z 35003KT CAVOK 29/19 Q1010 NOSIG
  • 151800Z 00000KT CAVOK 30/18 Q1010 NOSIG

TAF TAF LYPG
Valid from the 15 at 18:00 until the 16 at 18:00 UTC


151700Z 1518/1618 36005KT CAVOK TX34/1613Z TN20/1603Z
PROB30
TEMPO 1614/1618 36015KT TS FEW030CB SCT040
No reported NOTAMs for that airfield.



MET'MAP, your aeronautical weather chart ! - Copyright ORBIFLY December 2007 - Disclaimer

ORBIFLY MET'MAP TEAM :

Programming & Development : Alexandra Zaïnal
Concept & Development : Baudouin d'Aumeries
Co-Development & Prog : Marc-Olivier Méhu
Technical & hardware support : Manuel Goepfert

Contact : metmap@orbifly.com




SOURCES & CREDITS :

   NOAA